Location: Bathsheba
(13.2167°N, 59.5167°W)
Time: 23:24:07
(UTC+00:00)

Cosmos 923 Rocket - Pass Details

Date: 18 September 2020
Orbit: 759 x 784 km, 74.0° (Epoch: 20 October)

Event Time Altitude Azimuth Distance (km) Brightness Sun altitude
Rises 23:08:04 0° 343° (NNW) 3,211 7.5 -18.2°
Reaches altitude 10° 23:10:26 10° 341° (NNW) 2,284 6.8 -18.8°
Maximum altitude 23:15:35 71° 258° (WSW) 800 4.2 -20.0°
Drops below altitude 10° 23:20:44 10° 174° (S) 2,282 6.3 -21.2°
Sets 23:23:06 0° 172° (S) 3,208 7.1 -21.8°
